PELICAN-3

导读

PELICAN-3(鹈鹕-3)是美国Planet Labs公司开发的地球观测卫星,于2025年8月26日搭乘SpaceX猎鹰9号火箭从范登堡太空军基地发射升空。作为第一代鹈鹕卫星,它具备40厘米级分辨率多光谱成像能力,搭载英伟达Jetson AI芯片支持星上计算,可面向国防、农业等领域提供高分辨率对地观测服务,是Planet构建全球快速重访卫星星座的重要一环。

Basic Information
目录编号:
65315
目录名称:
PELICAN-3 300A
国际标识:
2025-188A
轨道中心:
EARTH
卫星名称:
PELICAN-3
卫星全名:
PELICAN-3
卫星状态:
在轨 (已飞行375 天)
发射日期:
2025-08-26 UTC
国别 :
美国 (US)
星等 :
--
Orbit Information
数据来源 国际轨道数据
星历时间: 2026-09-04T19:03:48+0800
1天前
查看轨道信息
半长轴: 6821.186km
偏心率: 0.0001288
轨道倾角: 97.190°
近地点辐角 60.640°
升交点赤经 322.429°
平近点角 299.497°
近地点: 442.17km
远地点: 443.928km
周期: 93.444分钟
每日圈数: 15.410368
Detailed Information
使用方式:
暂无
2D Orbit Map
3D Orbit Map
Orbit Altitude Analysis Chart
Orbit Inclination Analysis Chart
Orbit Comprehensive Analysis Chart
View Comprehensive Chart
Conjunction Data List
Event ID Objects TCA Miss Dist (km) Collision Risk Probability Collision Risk Index (CRI) Action
CDM_260906-091906-393806-531521
2026-09-06T
09:19:05+0000
2.896 km
极远距离
1.384925E-6 低风险 0.38